JST518 YBBN-YBNA

Flight info

Callsign JST518
Flight time 0h 21m
Altitude 15000
Route LAGOB DCT CG
Aircraft A321/M-SDE3FGHIRWY/LB1

Departure

Time 2026-05-03 22:42
Airport Brisbane International Airport (YBBN)

Arrival

Time 2026-05-03 23:04
Airport Ballina Byron Gateway Airport (YBNA)
Time Latitude Longitude Altitude Speed Heading
2026-05-03 22:37 -27.39662 153.11809 21 ft 18 kts 207°
2026-05-03 22:37 -27.39784 153.11741 23 ft 21 kts 206°
2026-05-03 22:38 -27.39869 153.11692 21 ft 21 kts 208°
2026-05-03 22:38 -27.40000 153.11615 23 ft 21 kts 206°
2026-05-03 22:38 -27.40132 153.11541 23 ft 19 kts 206°
2026-05-03 22:38 -27.40233 153.11505 21 ft 15 kts 161°
2026-05-03 22:39 -27.40288 153.11605 21 ft 14 kts 115°
2026-05-03 22:39 -27.40302 153.11639 21 ft 0 kts 116°
2026-05-03 22:40 -27.40308 153.11652 21 ft 5 kts 116°
2026-05-03 22:40 -27.40323 153.11702 21 ft 0 kts 101°
2026-05-03 22:41 -27.40323 153.11717 21 ft 8 kts 89°
2026-05-03 22:41 -27.40279 153.11821 20 ft 23 kts 34°
2026-05-03 22:42 -27.40029 153.11967 20 ft 72 kts 26°
2026-05-03 22:42 -27.39372 153.12340 20 ft 137 kts 27°
2026-05-03 22:42 -27.38370 153.12913 152 ft 174 kts 28°
2026-05-03 22:42 -27.37351 153.13521 942 ft 165 kts 28°
2026-05-03 22:43 -27.36289 153.14089 1593 ft 171 kts 28°
2026-05-03 22:43 -27.35389 153.14969 2106 ft 183 kts 66°
2026-05-03 22:43 -27.35230 153.16434 2457 ft 204 kts 104°
2026-05-03 22:43 -27.36075 153.17797 2771 ft 232 kts 144°
2026-05-03 22:44 -27.37607 153.18637 3339 ft 255 kts 156°
2026-05-03 22:44 -27.39307 153.19308 4189 ft 263 kts 160°
2026-05-03 22:44 -27.41075 153.19933 4924 ft 268 kts 160°
2026-05-03 22:44 -27.42871 153.20561 5673 ft 273 kts 160°
2026-05-03 22:45 -27.44693 153.21215 6428 ft 276 kts 159°
2026-05-03 22:45 -27.46528 153.21895 7139 ft 280 kts 159°
2026-05-03 22:45 -27.48379 153.22599 7858 ft 283 kts 160°
2026-05-03 22:45 -27.50256 153.23324 8566 ft 287 kts 160°
2026-05-03 22:46 -27.52133 153.24053 9268 ft 291 kts 161°
2026-05-03 22:46 -27.54077 153.24812 9992 ft 295 kts 162°
2026-05-03 22:46 -27.56060 153.25584 10342 ft 312 kts 162°
2026-05-03 22:46 -27.58157 153.26398 10473 ft 334 kts 161°
2026-05-03 22:47 -27.60429 153.27283 10620 ft 355 kts 162°
2026-05-03 22:47 -27.62789 153.28206 11055 ft 364 kts 162°
2026-05-03 22:47 -27.65198 153.29149 11610 ft 368 kts 162°
2026-05-03 22:47 -27.67636 153.30105 11932 ft 372 kts 162°
2026-05-03 22:48 -27.70089 153.31063 12013 ft 373 kts 162°
2026-05-03 22:48 -27.72545 153.32020 12144 ft 374 kts 162°
2026-05-03 22:48 -27.75007 153.32984 12167 ft 375 kts 162°
2026-05-03 22:48 -27.77469 153.33954 12177 ft 375 kts 162°
2026-05-03 22:49 -27.79923 153.34951 12178 ft 375 kts 161°
2026-05-03 22:49 -27.82384 153.35972 12411 ft 379 kts 161°
2026-05-03 22:49 -27.84863 153.37009 13067 ft 381 kts 161°
2026-05-03 22:49 -27.87367 153.38055 13637 ft 386 kts 161°
2026-05-03 22:50 -27.89901 153.39109 14158 ft 390 kts 162°
2026-05-03 22:50 -27.92465 153.40169 14641 ft 394 kts 162°
2026-05-03 22:50 -27.95055 153.41235 15037 ft 398 kts 162°
2026-05-03 22:50 -27.97653 153.42304 15153 ft 400 kts 162°
2026-05-03 22:51 -28.00323 153.43403 15184 ft 414 kts 162°
2026-05-03 22:51 -28.03041 153.44525 15186 ft 417 kts 162°
2026-05-03 22:51 -28.05768 153.45657 15185 ft 418 kts 162°
2026-05-03 22:51 -28.08498 153.46791 15185 ft 418 kts 162°
2026-05-03 22:52 -28.11230 153.47923 15185 ft 418 kts 162°
2026-05-03 22:52 -28.13952 153.49054 15028 ft 413 kts 162°
2026-05-03 22:52 -28.16636 153.50171 14492 ft 410 kts 162°
2026-05-03 22:52 -28.19298 153.51288 13955 ft 406 kts 161°
2026-05-03 22:53 -28.21934 153.52407 13373 ft 402 kts 161°
2026-05-03 22:53 -28.24539 153.53520 12828 ft 397 kts 161°
2026-05-03 22:53 -28.27092 153.54612 12014 ft 385 kts 160°
2026-05-03 22:53 -28.29571 153.55674 11069 ft 375 kts 160°
2026-05-03 22:54 -28.31965 153.56694 10907 ft 360 kts 160°
2026-05-03 22:54 -28.34259 153.57670 10785 ft 345 kts 160°
2026-05-03 22:54 -28.36443 153.58600 10662 ft 324 kts 160°
2026-05-03 22:54 -28.38497 153.59475 10426 ft 308 kts 160°
2026-05-03 22:55 -28.40477 153.60316 10015 ft 301 kts 159°
2026-05-03 22:55 -28.42419 153.61143 9504 ft 295 kts 159°
2026-05-03 22:55 -28.44328 153.61958 9068 ft 291 kts 159°
2026-05-03 22:55 -28.46215 153.62766 8646 ft 289 kts 159°
2026-05-03 22:56 -28.48091 153.63569 8228 ft 289 kts 158°
2026-05-03 22:56 -28.49977 153.64375 7804 ft 290 kts 158°
2026-05-03 22:56 -28.51858 153.65176 7421 ft 289 kts 158°
2026-05-03 22:56 -28.53711 153.65967 6960 ft 280 kts 158°
2026-05-03 22:57 -28.55533 153.66745 6552 ft 280 kts 157°
2026-05-03 22:57 -28.57353 153.67522 6121 ft 278 kts 157°
2026-05-03 22:57 -28.59161 153.68297 5708 ft 277 kts 157°
2026-05-03 22:57 -28.60957 153.69067 5304 ft 275 kts 157°
2026-05-03 22:58 -28.62738 153.69831 4897 ft 273 kts 157°
2026-05-03 22:58 -28.64515 153.70594 4493 ft 273 kts 157°
2026-05-03 22:58 -28.66277 153.71349 4107 ft 266 kts 157°
2026-05-03 22:58 -28.67954 153.72069 4020 ft 249 kts 157°
2026-05-03 22:59 -28.69571 153.72764 4056 ft 248 kts 157°
2026-05-03 22:59 -28.71198 153.73422 4037 ft 248 kts 160°
2026-05-03 22:59 -28.72817 153.73986 4019 ft 232 kts 161°
2026-05-03 22:59 -28.74335 153.74358 4031 ft 225 kts 173°
2026-05-03 23:00 -28.75898 153.74229 4012 ft 228 kts 190°
2026-05-03 23:00 -28.77413 153.73623 3686 ft 230 kts 205°
2026-05-03 23:00 -28.78736 153.72663 3309 ft 225 kts 218°
2026-05-03 23:00 -28.79617 153.71254 2845 ft 220 kts 254°
2026-05-03 23:01 -28.79782 153.69532 2326 ft 218 kts 265°
2026-05-03 23:01 -28.80127 153.67884 1966 ft 209 kts 252°
2026-05-03 23:01 -28.80613 153.66371 1677 ft 195 kts 250°
2026-05-03 23:01 -28.81046 153.64975 1425 ft 179 kts 255°
2026-05-03 23:02 -28.81356 153.63666 1244 ft 166 kts 253°
2026-05-03 23:02 -28.81685 153.62446 1058 ft 155 kts 253°
2026-05-03 23:02 -28.81982 153.61289 834 ft 149 kts 254°
2026-05-03 23:02 -28.82269 153.60175 635 ft 145 kts 253°
2026-05-03 23:03 -28.82558 153.59076 417 ft 145 kts 251°
2026-05-03 23:03 -28.82834 153.57981 223 ft 143 kts 254°
2026-05-03 23:03 -28.83126 153.56896 29 ft 142 kts 253°
2026-05-03 23:03 -28.83379 153.55950 15 ft 108 kts 253°
2026-05-03 23:04 -28.83534 153.55308 11 ft 84 kts 254°
2026-05-03 23:04 -28.83787 153.54442 14 ft 126 kts 242°
2026-05-03 23:04 -28.83775 153.54324 15 ft 0 kts 307°